Location: Bambrugge
(50.9212°N, 3.9299°E)
Time: 22:02:14
(UTC+00:00)

SL-16 R/B - Pass Details

Date: 11 August 2024
Orbit: 842 x 845 km, 71.0° (Epoch: 10 September)

Event Time Altitude Azimuth Distance (km) Brightness Sun altitude
Exits shadow 00:42:34 38° 245° (WSW) 1,271 2.8 -22.9°
Maximum altitude 00:44:34 58° 305° (NW) 979 2.5 -22.8°
Drops below altitude 10° 00:50:11 10° 25° (NNE) 2,477 5.7 -22.6°
Sets 00:52:41 0° 29° (NNE) 3,416 6.7 -22.5°
